Epoch 2022 Aug. 9.0 TT = JDT 2459800.5 T 2021 Aug. 28.65722 TT Rudenko q 4.8624772 (2000.0) P Q z -0.0004393 Peri. 10.31617 -0.17072683 +0.34084499 +/-0.0000007 Node 256.76148 -0.95809548 -0.27645383 e 1.0021359 Incl. 71.75497 -0.23001172 +0.89855327 From 1309 observations 2020 July 23-2022 Sept. 6, mean residual 0".5.
m1 = 0.5 + 5 log d + 17.5 log r(t - 80)